Theta_e
319 319 319 319 318 318 318 318 318 318 319 319 319 319 319 319 319 319 318 318 318 318 318 318 318 318 318 318 319 320 319 316 313 311 310 313 320 330 337 333 335 336 340 334 330 324 320 319 318 321 324 326 325 327 331 335 341 336 326 322 319 321 320 326 325 327 331 326 328 331 334 330 326 332 333 336 333 333 332 332 335 338 338 340 342 345 348 349
319 318 318 318 318 318 318 318 318 318 319 319 319 319 319 319 319 319 319 318 318 318 318 318 318 319 318 319 320 321 318 314 312 310 311 322 328 332 336 335 341 341 339 328 322 320 316 313 316 320 323 323 327 327 333 332 340 328 325 323 318 323 325 332 332 333 329 328 331 333 335 332 330 332 333 329 328 330 329 331 334 334 338 341 343 346 346 347
318 318 318 318 318 318 318 318 318 318 318 318 319 318 318 318 319 318 318 319 319 318 318 318 318 318 319 319 320 320 316 312 312 311 321 340 334 335 335 341 343 341 332 324 321 319 315 314 317 321 324 323 326 325 330 335 335 332 326 320 323 327 329 332 334 333 334 333 331 332 334 333 333 333 335 329 327 329 327 328 331 332 333 337 341 344 345 346
318 318 318 318 318 318 318 318 318 318 318 318 318 318 318 318 318 318 318 318 318 318 318 318 318 318 319 320 321 320 314 311 309 317 322 345 343 338 336 342 345 337 320 323 320 317 317 318 319 323 322 325 323 329 327 334 329 332 327 323 326 330 327 330 333 332 335 335 333 333 334 331 334 335 334 330 326 327 329 332 331 332 334 337 340 342 344 344
318 318 318 318 318 318 318 318 318 318 318 318 317 317 317 317 317 318 318 318 318 318 318 318 319 319 319 321 320 319 312 307 309 318 326 354 343 341 339 345 345 320 317 317 318 318 318 318 320 322 325 324 321 325 325 333 334 332 328 331 330 332 329 330 334 334 335 336 335 333 329 329 336 333 332 331 325 324 329 334 336 337 338 338 339 342 344 343
318 318 318 318 318 318 318 318 318 318 317 317 317 317 317 317 317 317 317 317 317 317 317 318 319 319 320 320 319 315 302 299 311 308 351 346 341 343 343 348 340 314 317 317 316 315 316 318 320 321 322 324 323 322 329 331 337 322 331 332 333 334 331 333 334 332 336 332 331 331 334 333 330 329 332 332 330 331 335 337 339 340 341 342 343 343 342 342
317 318 317 317 318 317 317 318 317 317 317 317 317 317 317 316 316 316 316 316 317 317 317 318 319 320 320 318 315 309 303 302 311 319 353 343 342 345 347 343 330 314 314 313 314 313 315 316 321 319 319 320 316 319 323 330 336 329 323 332 333 333 332 335 336 335 335 332 330 336 336 330 329 325 332 330 332 333 336 339 341 342 343 343 342 342 342 343
317 317 317 317 317 317 317 317 317 317 317 317 317 317 316 316 316 316 316 316 317 317 318 318 319 319 320 315 310 304 301 309 314 330 347 344 342 345 337 319 311 311 312 311 314 312 314 314 317 317 320 321 317 318 324 327 333 328 327 333 335 336 336 336 337 336 336 335 337 335 331 331 333 331 331 329 331 334 337 340 341 342 342 342 342 342 343 343
317 317 317 317 317 317 317 317 317 317 317 316 316 316 316 315 316 316 316 317 317 317 318 319 318 320 320 316 305 303 309 313 315 338 342 340 336 330 329 323 314 311 308 309 313 313 314 311 314 320 316 317 316 315 323 323 322 332 331 335 334 333 336 336 335 335 336 336 336 331 331 333 334 336 329 330 331 336 339 340 340 341 340 340 341 342 342 342
317 317 317 316 317 317 317 317 317 317 316 316 316 316 315 315 315 316 316 316 317 318 318 319 320 320 316 314 302 304 310 335 335 338 337 337 331 324 323 321 313 310 309 306 308 313 314 312 315 317 316 317 314 312 321 323 323 334 334 333 331 332 335 336 334 335 336 335 336 329 329 330 333 331 323 332 334 338 338 338 340 339 338 339 341 343 343 343
317 316 316 316 316 316 316 317 317 316 316 316 315 315 315 315 315 315 316 316 316 318 318 319 319 319 315 312 304 301 310 327 335 337 336 333 326 321 320 317 314 312 309 305 307 311 314 315 315 317 318 314 313 327 328 331 337 336 334 331 330 332 336 335 334 334 336 332 335 333 329 331 332 329 326 330 335 338 336 337 338 339 339 340 341 342 344 344
317 316 316 316 316 316 316 316 316 316 316 315 315 314 315 315 315 315 315 316 316 318 318 321 320 319 316 309 306 306 313 330 333 335 333 328 323 321 320 317 315 313 311 308 307 307 309 313 313 314 314 315 324 333 333 338 334 332 333 326 324 328 328 332 330 333 335 331 334 334 328 325 327 325 332 332 336 336 336 336 337 338 339 340 342 342 343 343
316 316 316 315 315 315 316 316 316 316 315 314 314 314 315 314 314 315 315 315 317 319 320 320 321 319 314 307 312 315 315 319 321 329 327 323 320 319 321 315 313 311 312 310 308 309 309 308 312 312 311 311 313 321 336 337 333 334 330 327 324 322 325 329 331 333 332 332 333 335 313 319 325 329 331 334 335 335 335 335 336 337 338 340 341 341 342 344
316 316 315 315 315 315 316 316 316 315 315 314 314 313 313 314 314 315 315 315 318 319 319 321 319 317 311 308 315 317 317 317 317 323 325 324 321 316 316 316 313 312 311 310 309 309 309 309 309 308 311 309 320 340 334 332 333 325 327 327 320 318 319 326 328 331 328 333 333 333 315 319 326 330 331 333 335 334 332 334 335 336 337 338 339 340 340 342
316 316 315 315 315 315 315 315 315 314 314 314 312 313 313 313 315 316 316 317 318 320 321 322 319 315 312 314 320 328 334 323 322 321 326 320 316 314 313 315 314 312 311 311 310 309 309 309 308 306 309 314 335 330 325 326 327 326 320 315 320 317 319 323 327 329 325 329 333 327 317 321 326 328 332 333 334 334 332 334 335 335 336 337 338 338 339 340
315 315 315 315 314 315 314 314 314 314 314 313 312 312 314 315 316 316 317 318 321 321 321 318 316 313 310 306 317 333 325 316 315 320 324 323 319 316 314 312 311 311 313 311 311 311 309 309 305 308 311 325 324 321 320 320 320 323 319 316 315 317 318 320 325 327 329 328 330 328 318 322 323 329 331 332 333 333 332 333 334 334 335 335 336 337 338 338
315 315 314 314 314 314 314 313 314 314 313 312 312 313 315 316 317 319 320 321 321 320 319 316 317 316 304 311 319 314 312 316 315 321 321 323 318 312 312 310 309 309 310 308 308 309 307 308 311 311 319 316 324 322 312 311 314 317 321 316 318 315 317 316 323 327 328 328 322 327 323 322 324 327 329 331 332 331 331 332 333 334 334 335 336 335 336 336
315 315 314 314 314 314 314 313 314 313 312 312 311 312 315 319 321 321 321 320 320 318 317 318 315 311 306 311 307 310 314 313 315 316 319 322 313 311 310 306 305 308 307 305 306 304 306 305 308 308 315 319 322 319 308 306 311 314 316 315 315 318 320 319 318 323 326 327 323 323 322 323 324 326 328 331 332 330 330 331 332 332 333 334 334 334 335 335
315 315 315 314 313 313 313 313 313 313 312 312 312 314 318 320 320 319 316 316 313 310 305 311 308 303 299 307 311 313 315 316 312 313 316 317 314 314 310 308 308 306 303 303 302 304 306 306 307 305 304 315 317 318 313 315 316 314 316 316 317 315 318 318 323 328 326 323 321 321 321 322 322 323 327 330 331 330 330 331 331 332 333 333 333 333 334 335
315 315 315 315 314 313 314 313 312 312 312 309 310 314 314 309 308 307 315 315 313 310 308 309 311 309 311 311 311 316 318 314 313 311 315 321 316 314 311 309 306 307 304 300 302 304 308 305 305 305 305 310 319 321 321 319 319 319 320 316 315 316 320 323 322 326 330 322 320 322 324 321 321 323 326 329 330 330 329 329 330 331 331 332 332 332 334 335
316 316 315 315 314 314 313 313 312 312 311 309 307 310 308 304 304 304 307 308 315 316 312 312 312 311 311 312 314 315 312 313 312 311 311 324 317 313 307 308 305 303 303 303 304 308 307 305 306 304 305 307 312 322 324 322 321 318 316 312 313 317 315 322 322 328 329 319 320 322 321 320 322 325 326 328 328 327 328 328 329 330 331 332 332 333 333 335
316 315 315 314 314 313 313 313 312 311 309 306 310 309 307 310 313 313 309 306 309 314 313 313 312 311 315 314 316 316 314 311 309 309 312 314 310 308 305 306 304 301 303 304 305 304 303 304 304 305 306 304 305 314 322 321 319 318 315 313 309 315 320 323 321 323 326 323 318 320 319 320 321 323 326 326 327 329 330 330 330 330 331 331 332 333 334 334
315 315 315 314 313 312 312 312 311 308 309 311 310 309 310 313 314 316 312 307 305 310 312 311 311 311 313 315 316 317 310 309 306 309 310 312 307 308 306 305 304 302 302 304 302 301 300 303 305 306 306 305 304 305 309 314 316 315 315 310 304 318 312 312 320 319 323 321 320 319 317 319 323 324 324 329 328 331 333 333 332 333 331 331 331 333 333 333
315 315 315 314 313 312 312 310 309 310 311 312 308 310 313 314 315 314 310 305 304 310 310 312 313 313 312 312 316 315 310 309 308 307 315 311 308 307 306 305 302 302 302 302 302 302 302 304 306 306 305 305 304 303 303 304 303 309 309 308 307 315 317 315 317 318 320 324 324 319 317 316 320 319 320 327 331 331 331 331 331 333 334 334 334 334 334 333
315 314 314 314 312 312 310 309 310 311 312 310 312 316 316 318 317 315 310 307 305 308 313 308 312 312 315 317 317 313 310 306 309 311 315 312 305 306 305 305 305 301 302 300 302 301 301 305 305 304 304 304 304 303 303 304 302 305 312 310 308 313 317 319 319 317 314 314 319 318 308 309 318 319 320 324 326 326 331 330 329 330 332 333 331 332 333 334
314 314 314 313 312 310 309 309 314 312 310 312 313 315 317 317 316 316 311 302 297 302 306 303 311 306 316 311 313 309 308 305 309 310 312 312 320 309 304 304 304 300 300 301 302 303 303 303 304 303 304 303 303 303 304 304 302 301 304 316 317 319 320 319 317 316 309 306 316 321 308 306 316 315 319 322 323 324 329 329 329 330 330 330 330 331 331 332
314 314 313 312 311 309 309 312 310 310 307 310 313 316 317 317 320 314 307 300 294 300 299 305 306 307 312 308 310 309 300 305 313 312 312 320 310 314 304 302 303 304 303 304 302 299 302 302 303 303 303 303 302 302 303 304 302 301 318 321 321 321 319 318 317 317 314 318 319 319 316 309 308 315 321 322 322 323 324 327 330 330 330 329 331 331 332 331
314 313 312 311 310 308 310 310 309 309 309 311 316 317 317 319 317 316 305 290 289 303 299 304 306 312 310 308 310 306 306 309 306 309 313 312 313 308 307 302 302 302 302 302 294 301 302 300 301 301 302 301 301 304 305 306 303 310 322 324 321 321 321 319 316 315 314 312 308 313 317 307 307 316 321 321 317 319 321 324 328 331 330 330 330 330 331 332
312 312 311 311 310 307 308 309 309 307 311 315 316 317 317 318 315 310 300 289 299 300 311 301 313 309 307 307 306 304 306 310 303 309 311 311 311 309 304 306 304 304 304 303 299 301 302 304 305 304 302 301 303 304 306 309 311 321 325 325 324 324 322 321 316 314 312 309 305 312 315 306 307 314 316 322 317 317 319 322 326 330 331 329 329 330 331 332
312 311 311 310 309 308 309 308 307 313 315 316 316 318 316 316 311 302 293 287 303 296 303 304 304 302 304 303 303 304 304 305 309 309 310 308 309 310 306 308 305 304 303 303 303 305 305 309 306 303 303 305 305 306 305 308 319 324 323 320 319 319 318 318 317 316 311 303 307 314 315 312 305 312 314 313 315 320 320 322 326 331 332 329 330 330 330 331
311 310 310 309 308 312 311 307 312 315 316 317 317 314 316 314 302 295 289 293 302 302 302 301 301 305 303 302 301 303 304 305 308 308 306 308 306 307 306 304 307 303 301 302 302 303 303 304 304 306 309 315 313 315 316 320 324 321 317 314 312 312 316 314 312 314 305 303 311 317 315 314 301 311 317 320 322 321 322 321 324 327 330 329 329 329 330 331
309 308 309 309 310 312 307 310 313 314 317 317 316 316 311 300 300 292 291 307 294 297 297 300 301 301 301 302 301 303 303 305 306 306 305 305 304 303 304 301 302 296 296 298 297 301 300 302 303 303 308 311 316 313 317 320 321 316 315 310 300 304 303 300 308 301 303 303 311 315 316 308 307 314 322 321 321 324 326 325 325 327 329 330 328 329 331 332
308 308 307 308 310 309 311 312 315 317 318 316 316 313 304 298 288 295 297 300 295 301 300 301 300 300 301 301 301 302 304 303 305 305 303 301 302 303 300 302 302 300 294 298 297 297 299 301 300 308 308 316 312 307 312 312 315 314 308 305 299 296 296 294 299 302 303 308 313 313 316 307 315 317 321 320 324 326 327 328 328 328 330 330 329 330 331 333
307 307 307 310 309 312 315 317 316 316 314 321 315 307 303 294 292 310 300 302 300 303 299 299 301 300 300 300 300 303 301 303 304 304 303 302 301 301 303 301 300 300 300 298 295 296 293 295 303 308 303 317 311 309 313 312 314 313 314 306 302 301 297 294 299 296 300 305 310 316 309 307 307 315 324 325 327 328 328 330 330 331 332 332 331 331 332 333
306 305 309 310 309 311 312 314 315 315 314 316 308 305 296 294 297 297 299 301 302 302 300 300 299 300 300 300 301 303 303 301 304 305 304 301 300 302 301 302 300 301 301 296 298 297 296 297 303 309 313 318 311 318 321 317 316 317 317 315 306 301 309 297 305 305 305 305 305 308 308 315 314 326 330 331 329 328 329 328 329 330 333 331 329 329 330 331
308 311 309 312 313 316 313 314 314 314 315 311 305 301 296 300 296 300 300 304 302 301 302 300 300 299 297 299 301 302 302 302 303 303 303 303 303 301 303 302 301 302 300 297 302 297 299 297 303 304 312 318 313 321 320 319 302 313 313 306 308 318 312 311 310 311 310 307 305 314 310 315 321 322 328 328 326 326 327 326 327 329 332 330 328 328 330 331
313 314 316 318 317 317 314 314 315 314 315 309 304 297 303 303 304 303 314 304 303 304 299 296 297 297 297 296 299 299 301 304 302 302 300 303 301 302 302 304 304 302 303 303 300 303 297 298 303 304 309 317 322 322 323 320 320 314 307 311 317 319 315 309 301 306 305 300 303 309 307 310 310 307 324 325 324 325 325 325 325 331 332 329 328 328 330 330
310 314 323 320 318 315 315 316 315 314 315 308 303 303 305 301 305 305 306 305 303 301 298 297 298 298 296 297 297 298 301 300 300 302 300 302 298 304 302 303 305 305 305 304 302 302 302 297 301 303 306 318 324 321 318 321 321 314 314 320 309 306 303 309 307 298 298 297 301 307 310 309 311 311 320 321 322 324 325 327 327 328 329 329 329 329 330 331
309 308 311 311 316 316 315 316 316 322 313 305 303 299 309 307 307 305 308 306 304 300 297 298 298 299 298 297 298 297 300 298 300 302 299 301 297 303 304 304 303 306 305 305 303 304 303 297 299 304 310 314 320 318 308 313 317 319 320 314 317 313 307 302 304 306 305 300 299 302 307 305 313 315 319 320 324 326 324 325 326 328 330 331 330 328 328 329
311 312 307 314 316 316 317 316 319 316 310 301 301 303 304 302 306 309 309 307 303 300 299 299 298 299 299 299 298 299 299 301 302 301 301 302 300 305 303 306 303 304 305 305 304 307 302 304 296 303 309 313 310 314 310 312 311 311 313 310 310 310 315 311 310 306 304 300 301 300 298 305 315 323 323 325 326 328 326 325 326 328 330 330 330 330 328 329
309 310 308 316 317 316 316 316 313 308 306 304 302 303 302 303 306 307 307 307 305 303 301 300 300 299 300 299 299 299 301 301 301 301 301 301 301 298 304 305 304 303 304 305 305 305 303 302 298 301 306 308 310 313 306 313 316 312 312 310 310 307 304 300 300 309 308 303 297 300 298 307 318 326 327 327 329 328 329 327 327 328 330 331 331 331 331 329
308 305 306 315 318 317 313 308 305 305 306 304 303 304 304 314 308 307 303 301 303 302 303 303 300 301 300 300 300 299 302 300 300 300 301 300 303 301 304 303 303 303 304 303 304 308 307 305 302 299 300 301 303 305 307 306 313 314 312 311 314 313 312 306 296 303 306 307 309 308 302 306 321 328 330 330 331 330 331 330 328 329 331 332 332 332 333 332
308 304 312 316 319 313 313 307 311 307 305 306 305 305 305 304 303 304 302 302 301 300 302 301 302 301 301 301 300 300 302 300 300 300 302 303 303 305 306 304 302 304 306 305 304 309 316 305 302 301 305 304 306 309 312 312 310 308 308 313 310 307 310 308 306 308 304 305 303 305 301 308 320 329 330 331 333 331 333 332 331 330 332 333 333 332 332 333
307 307 311 317 321 314 309 302 302 303 305 309 305 306 305 306 303 304 302 300 300 300 300 301 301 301 302 301 302 301 302 299 299 300 301 302 303 307 305 304 306 308 304 304 304 308 302 306 303 298 299 300 301 305 306 311 310 304 305 316 316 311 308 308 308 309 302 304 304 303 298 308 320 329 330 331 332 331 330 332 333 330 331 332 333 334 334 336
309 309 309 315 323 314 306 307 306 305 306 305 303 306 307 306 305 306 304 302 304 300 300 301 302 302 302 302 302 302 303 300 301 301 301 301 303 307 305 304 316 312 315 313 315 311 307 303 304 296 293 291 291 293 296 301 305 308 311 316 317 314 311 308 301 304 297 306 307 305 303 317 323 327 327 329 330 330 332 332 333 334 333 332 333 334 335 336
309 302 308 314 317 313 312 310 311 308 307 308 306 306 303 303 305 301 301 301 300 300 300 301 301 303 302 302 302 303 303 303 301 302 304 302 303 304 304 305 310 315 322 322 317 314 308 307 308 306 302 300 302 305 308 311 310 307 312 314 315 316 315 311 308 303 299 305 305 310 314 318 319 322 323 325 327 327 328 331 331 332 334 334 335 335 335 337
312 306 310 309 313 313 311 314 314 312 308 308 305 305 304 303 303 303 300 300 300 301 303 302 301 301 300 303 301 301 301 301 304 304 301 302 303 304 306 305 305 315 323 317 317 312 310 304 306 309 308 308 308 307 308 309 306 308 308 311 315 314 312 309 304 302 311 305 298 315 314 316 317 321 322 324 327 328 329 330 331 332 334 334 334 337 337 337
307 309 313 314 304 303 307 308 314 312 313 310 307 304 304 302 302 301 302 300 301 301 302 301 303 301 300 302 303 300 303 302 302 299 303 302 302 304 304 305 306 309 312 309 312 311 308 301 305 309 307 309 309 308 307 306 305 307 308 307 309 314 309 306 308 313 308 303 300 315 318 316 317 321 323 325 327 327 329 331 334 337 337 336 336 335 337 338
313 313 312 316 309 311 310 311 314 313 311 310 307 306 303 302 302 302 299 300 302 301 302 302 301 302 302 302 306 303 306 299 298 301 302 301 300 304 301 303 305 305 307 308 309 312 309 304 304 309 307 308 309 308 309 306 305 305 306 307 309 311 315 315 313 313 310 312 316 318 319 316 320 322 324 325 329 330 331 334 334 336 335 334 336 336 336 337
307 307 308 313 313 312 313 314 313 310 308 311 309 306 304 303 302 304 302 298 299 301 300 303 302 301 302 304 308 303 305 306 305 300 302 301 301 303 302 303 302 305 306 305 306 309 306 304 309 307 305 305 307 309 308 307 306 305 306 308 308 310 313 316 316 317 318 317 318 318 317 316 322 326 326 328 330 331 331 331 331 333 334 331 331 332 333 336
309 312 312 309 306 308 314 314 311 309 307 305 304 306 306 304 303 303 305 304 301 301 302 303 302 300 300 301 304 303 305 308 308 303 308 303 300 305 302 303 303 303 304 305 305 307 307 304 306 306 305 302 305 306 305 305 306 306 306 305 306 307 308 314 314 317 316 314 317 317 315 315 322 327 327 328 328 328 327 328 329 330 332 332 331 332 331 332
310 312 313 312 306 312 307 310 311 304 303 307 307 308 307 307 305 304 304 304 301 301 302 304 302 303 301 303 302 303 305 306 307 306 308 305 302 302 303 303 304 305 305 305 305 306 308 306 303 305 301 302 307 307 304 304 305 304 306 307 306 307 311 317 319 319 319 320 316 313 313 321 323 327 324 325 326 325 325 327 328 330 331 331 330 331 332 332
Wind_Speed
10 11 11 11 12 12 12 13 13 13 13 13 13 12 11 11 10 10 10 10 10 11 11 11 11 11 12 12 12 13 9 8 7 3 3 10 5 7 11 1 10 14 7 8 12 12 7 7 7 4 5 4 2 2 3 3 0 1 1 2 2 1 3 0 4 4 3 8 8 7 3 11 10 7 8 10 9 8 7 8 8 10 10 10 15 15 15 15
11 11 11 11 11 11 12 12 13 13 13 13 12 12 12 11 11 11 11 11 11 11 11 11 11 12 12 12 12 10 10 7 8 5 15 5 3 9 8 1 9 13 10 10 13 9 12 8 7 7 7 4 1 1 4 1 1 2 1 2 4 1 1 2 3 1 3 8 10 6 3 7 10 12 8 8 10 10 10 8 9 12 12 14 15 16 15 15
11 11 11 11 12 12 12 12 13 12 12 12 12 12 12 11 11 11 11 10 11 11 11 11 11 11 11 11 12 7 10 4 4 2 2 5 11 9 8 4 10 14 10 8 6 9 10 11 9 8 4 3 2 2 3 2 3 1 3 3 3 1 4 4 2 1 3 4 10 8 5 6 7 6 6 8 11 10 10 10 9 11 14 15 16 15 15 14
11 12 12 12 12 12 12 12 13 13 12 12 12 12 12 12 11 11 11 11 10 10 10 11 10 10 11 11 11 8 5 4 2 1 2 5 10 11 11 8 13 10 4 5 4 5 5 9 8 6 4 2 3 2 3 3 3 2 3 3 3 3 5 2 4 2 2 5 9 8 7 8 4 5 7 13 10 7 6 11 14 14 17 17 17 16 14 13
12 12 12 12 12 13 13 13 13 13 13 12 12 12 12 12 12 11 11 11 11 10 10 10 10 10 10 9 8 5 4 2 3 1 8 4 12 12 12 10 14 7 4 7 8 6 9 11 9 4 2 4 2 2 3 4 3 2 4 2 4 2 5 3 3 3 3 3 7 8 11 7 5 5 8 13 8 7 8 8 8 15 17 19 19 16 14 14
12 12 12 12 12 12 13 13 13 13 12 12 12 12 12 11 11 11 11 11 10 10 10 9 10 11 10 7 5 3 2 1 2 4 10 6 13 13 12 11 12 7 9 7 6 7 11 6 8 6 4 3 3 4 3 3 5 4 2 4 3 2 5 1 1 2 2 3 6 8 4 7 7 7 8 5 2 4 7 9 10 13 15 15 14 15 15 14
12 12 12 13 13 13 13 13 13 13 13 12 12 12 12 11 11 11 10 10 10 9 9 9 9 11 8 3 1 3 2 4 3 5 6 12 12 12 12 11 10 6 6 8 7 8 7 9 7 6 4 3 1 3 3 3 7 6 4 2 2 3 5 3 1 2 4 4 4 4 4 5 8 9 4 4 4 7 10 10 12 13 14 14 15 13 13 13
12 12 12 13 13 14 13 13 13 13 13 12 12 12 12 12 11 11 10 9 9 9 8 8 8 9 8 3 1 2 1 3 4 4 10 12 11 12 10 7 6 6 8 7 8 6 8 10 9 6 4 3 3 3 1 4 6 6 5 2 3 4 2 2 3 3 5 5 4 5 5 4 2 5 8 6 6 9 12 12 14 14 14 14 12 13 12 12
12 12 12 13 13 14 14 13 13 13 13 13 12 12 12 11 11 11 10 10 9 8 7 7 7 7 4 2 1 2 3 2 2 2 10 10 10 10 9 7 1 8 4 4 3 6 6 4 4 5 2 6 2 4 2 3 3 7 3 2 1 1 1 4 4 3 5 3 2 6 6 4 4 3 7 7 8 11 14 14 15 15 15 14 13 13 12 12
13 13 13 13 14 14 14 14 14 13 14 14 13 13 12 12 11 11 10 9 8 8 7 6 6 5 4 1 2 1 2 3 3 4 7 10 11 8 5 7 7 7 8 2 4 7 5 4 3 3 3 2 2 4 3 6 2 3 5 2 2 2 1 3 4 3 3 4 1 5 6 5 1 4 5 6 11 13 14 15 14 15 15 14 12 11 10 11
13 13 13 14 15 15 15 15 15 14 14 14 14 13 13 12 11 11 10 9 8 6 6 5 4 4 1 2 2 0 1 2 2 5 7 6 10 9 8 7 7 5 7 2 3 2 3 5 1 2 3 1 2 2 2 2 4 6 8 4 4 4 2 2 3 5 3 3 1 5 5 3 2 2 3 10 14 15 15 15 15 14 13 12 12 11 9 9
14 14 14 15 15 16 16 16 15 15 14 15 15 14 13 13 12 10 10 9 8 6 4 3 0 1 1 1 2 2 2 4 3 4 6 5 4 3 4 5 5 8 8 7 3 3 2 2 1 4 1 1 0 1 2 3 2 6 4 2 2 4 1 2 4 6 2 2 1 5 6 4 4 6 3 12 13 15 15 15 15 14 12 12 11 9 9 8
14 14 14 15 15 16 16 16 16 15 15 16 15 15 14 13 12 10 8 7 5 4 4 3 1 1 2 2 5 4 1 4 4 5 5 3 6 5 4 4 3 2 3 7 5 5 5 1 3 3 3 3 2 3 3 0 6 6 3 1 1 0 2 1 1 4 4 1 2 3 6 8 8 4 4 12 14 14 15 14 14 12 11 10 10 8 9 8
15 14 15 16 16 16 16 16 16 16 16 16 16 15 14 13 11 10 8 5 5 5 4 3 1 2 2 3 3 2 3 2 3 4 6 5 7 4 5 3 3 3 1 3 2 1 1 2 3 3 2 3 3 4 5 3 1 2 3 1 0 2 2 2 2 5 4 1 3 3 3 4 9 7 6 12 15 16 15 15 14 12 12 10 9 9 8 9
15 15 15 16 16 16 16 16 16 17 16 16 16 15 15 13 10 7 6 5 5 3 4 4 2 2 1 4 3 3 6 4 4 5 8 9 8 5 4 4 4 2 2 1 2 1 1 5 2 2 0 2 3 4 2 1 2 2 3 1 0 4 1 2 1 5 4 3 2 1 3 2 9 8 8 12 14 15 14 14 14 13 12 11 9 9 9 8
16 16 16 16 16 16 17 17 17 15 17 17 16 16 13 9 6 5 2 3 3 5 4 2 0 1 1 2 3 1 2 1 0 1 5 4 7 4 6 6 5 5 1 2 1 1 1 5 4 1 1 3 4 3 2 2 1 0 3 0 2 2 3 2 3 2 6 4 2 3 1 3 4 6 9 12 14 13 13 13 14 14 14 12 10 9 8 8
17 16 16 16 16 16 17 17 17 15 16 17 17 12 10 3 3 7 5 5 4 2 2 0 1 1 1 1 2 1 0 2 1 3 3 1 4 10 10 6 4 4 2 1 2 1 2 4 2 2 1 3 2 3 4 2 2 3 2 3 1 3 1 2 3 3 3 5 6 2 1 0 2 7 10 12 14 13 12 13 13 13 11 12 10 9 9 8
15 15 16 17 17 17 17 17 17 17 16 15 14 9 4 6 7 9 5 3 2 1 1 0 1 1 4 2 0 3 1 4 0 5 4 1 8 8 3 4 4 6 3 4 2 3 1 3 1 3 2 3 5 5 5 1 2 1 3 3 2 3 4 1 3 5 5 3 5 3 1 0 1 7 11 13 13 13 13 13 14 13 12 11 10 10 10 9
18 16 14 15 18 17 18 17 16 17 16 15 8 4 5 6 2 1 2 2 2 1 1 2 1 3 2 1 1 5 2 2 3 4 5 9 2 3 6 6 8 8 4 1 3 1 2 3 1 3 7 5 5 6 5 4 2 2 1 0 0 2 3 2 1 3 7 6 4 5 3 2 3 7 11 12 13 13 12 11 10 11 11 11 11 10 9 9
19 17 15 13 13 18 17 17 15 12 15 8 3 2 3 2 1 1 2 1 3 2 2 1 2 3 8 4 3 5 3 1 4 4 6 1 8 5 4 2 3 1 4 3 4 3 2 8 9 10 5 3 5 8 6 3 4 2 2 0 1 1 2 3 1 4 4 3 2 3 2 3 6 8 10 12 12 11 12 12 11 11 12 12 11 11 11 11
16 16 14 14 12 15 17 16 13 11 12 5 2 2 4 1 4 5 7 5 3 3 4 3 5 5 5 3 3 4 3 0 3 3 4 5 5 10 2 1 1 3 1 1 4 2 3 7 8 1 1 4 5 4 7 7 5 6 6 4 2 2 0 2 1 3 4 7 3 0 3 3 5 6 8 10 12 13 14 13 13 13 13 12 13 12 12 11
18 17 15 13 14 12 15 14 11 13 5 1 2 2 3 1 2 2 0 5 3 3 3 6 2 6 3 5 3 1 2 3 4 4 2 4 4 3 2 2 2 4 1 2 3 4 5 8 2 1 2 1 1 3 5 6 8 4 5 3 4 1 1 1 5 6 2 3 2 2 3 2 3 4 6 10 12 11 12 13 14 14 14 12 12 12 11 9
19 17 16 15 13 13 12 11 11 8 1 1 1 3 2 1 2 1 2 2 6 2 2 1 3 5 5 1 1 5 1 2 0 4 7 5 3 2 6 3 2 3 2 3 5 4 5 1 2 1 3 2 2 3 4 6 6 5 4 4 4 1 3 0 2 1 2 2 2 3 5 1 2 1 5 7 10 7 6 8 11 13 14 14 15 14 12 13
20 19 17 15 15 14 13 12 11 2 2 2 1 3 1 1 1 1 4 3 5 5 3 3 3 3 4 2 4 6 3 1 2 3 2 5 5 2 4 3 4 2 4 2 3 4 3 5 4 4 3 3 2 2 3 3 4 2 4 3 3 3 3 5 3 2 6 4 3 5 3 1 2 5 6 7 3 3 7 7 8 9 10 11 11 13 12 13
20 20 19 17 17 15 13 11 2 1 2 2 4 4 4 2 2 5 3 2 2 3 0 1 1 4 1 2 3 3 0 1 6 1 3 5 5 3 1 1 2 3 2 3 5 2 2 3 4 4 3 3 3 3 3 3 5 1 3 2 9 8 5 6 9 7 3 1 4 5 2 4 5 8 12 10 8 8 6 9 12 11 10 8 11 13 12 12
19 19 20 18 18 17 13 2 0 1 2 1 2 1 3 4 3 3 2 2 1 3 2 3 1 2 0 2 2 0 0 1 2 2 3 2 3 1 3 2 1 1 5 5 1 2 2 2 5 4 5 4 4 5 1 4 4 4 1 1 7 4 8 9 8 6 4 3 3 4 7 4 3 9 10 11 14 14 8 9 11 12 11 11 11 12 12 13
19 18 19 17 15 15 3 1 1 2 1 1 1 3 4 4 2 6 2 1 1 1 2 2 1 2 1 0 4 2 1 2 1 3 1 1 5 2 3 2 1 2 2 3 1 4 2 3 3 2 3 4 3 8 5 7 3 5 4 2 4 6 6 7 4 2 2 2 3 7 4 4 2 8 9 12 14 16 15 12 9 9 13 14 13 13 12 13
21 18 14 12 10 6 2 4 4 2 1 2 2 4 4 2 3 1 1 1 3 1 2 1 1 0 2 1 1 3 1 2 0 2 2 1 0 2 2 4 4 4 4 4 5 2 5 3 3 4 3 3 6 6 4 8 3 2 4 8 6 5 6 8 5 4 2 1 2 7 4 3 6 3 8 11 16 19 19 16 13 10 11 14 14 14 14 14
21 19 16 11 9 4 3 1 1 3 0 2 4 4 2 3 2 1 1 2 1 2 1 0 2 2 2 1 2 2 1 1 3 1 2 2 4 1 4 5 4 4 1 3 4 3 4 7 6 5 4 5 5 5 5 9 4 3 10 11 8 7 5 6 4 4 2 1 5 8 8 5 4 4 8 11 16 19 18 16 14 11 11 13 14 14 14 12
21 18 15 9 5 3 2 1 6 4 4 4 4 5 1 2 1 1 1 0 3 1 1 2 2 1 0 1 1 3 3 1 1 2 2 3 1 2 3 1 4 4 4 1 4 7 1 2 2 3 6 7 3 4 5 8 8 13 11 12 7 6 5 4 3 2 2 4 6 6 13 8 5 7 11 13 15 13 11 11 12 10 9 12 13 14 12 12
20 14 11 5 3 1 4 2 4 2 4 4 4 2 2 3 0 2 1 2 1 4 1 1 2 2 2 5 2 1 1 2 1 1 3 2 2 2 1 2 3 2 1 1 6 4 4 2 4 4 7 4 5 5 3 9 16 14 5 7 6 3 2 2 2 2 3 3 3 1 11 11 8 2 6 7 8 18 15 15 15 14 13 12 13 13 14 13
18 13 10 6 5 1 4 2 2 2 4 4 2 2 1 3 1 2 1 2 2 1 2 4 1 1 1 2 1 1 1 1 1 1 2 2 3 5 5 5 3 1 3 2 3 2 6 8 2 1 3 9 7 8 6 10 10 7 6 7 5 1 2 3 2 3 3 2 3 2 7 3 13 6 0 9 12 14 15 14 15 17 15 14 14 15 12 12
18 14 8 9 8 4 6 1 2 3 4 3 1 0 1 2 2 1 3 2 1 1 2 2 2 3 1 2 2 1 1 1 2 2 0 1 2 3 2 3 1 3 2 1 2 2 2 3 3 3 3 7 10 7 7 7 8 8 9 6 6 5 4 3 1 2 4 3 2 1 8 7 4 7 10 11 15 15 16 15 13 15 16 15 14 14 12 11
19 11 3 6 11 7 1 1 1 4 1 1 1 1 2 2 2 1 2 3 4 1 2 2 3 0 1 3 1 1 3 1 1 2 1 2 1 2 2 2 5 4 2 2 3 1 3 3 4 6 4 8 12 11 14 9 13 11 8 10 7 6 2 2 2 3 2 2 2 4 5 4 3 2 1 8 11 14 12 12 13 11 12 13 14 14 13 13
16 2 4 3 5 9 10 6 2 5 0 1 2 1 2 1 2 2 2 2 3 3 2 1 2 1 1 1 1 2 2 1 3 1 3 0 2 1 2 2 4 2 2 4 2 2 1 4 3 3 2 11 12 1 3 7 7 4 3 2 4 8 1 6 2 1 1 1 2 5 5 1 3 2 2 1 4 9 11 12 13 13 9 10 11 12 13 14
4 1 1 2 3 1 5 5 4 3 1 2 1 1 1 1 2 3 0 1 1 4 7 2 2 1 1 2 1 2 2 2 2 1 0 1 0 2 0 2 3 8 4 2 3 2 2 3 3 3 1 11 11 9 8 10 5 7 6 6 2 3 3 3 2 1 1 3 4 3 5 4 4 5 1 4 5 9 11 12 14 13 10 12 12 13 14 13
2 1 0 1 2 2 3 6 6 4 1 2 1 0 1 2 3 4 2 2 4 4 1 1 2 1 1 1 1 1 1 1 1 1 2 1 3 4 3 2 3 4 7 2 3 3 2 2 2 4 3 1 1 7 8 2 6 7 7 4 6 3 4 2 5 2 2 3 1 3 5 3 3 1 2 3 6 9 12 12 14 10 11 14 14 13 14 14
3 2 1 2 3 3 4 7 8 2 2 1 1 1 0 1 2 4 1 1 1 1 1 1 1 0 1 2 1 2 1 2 2 1 0 1 1 1 2 2 3 3 1 3 3 1 3 2 2 3 1 4 6 10 7 2 4 2 2 8 6 1 5 1 2 5 4 4 3 2 4 5 5 3 2 2 6 8 11 12 12 11 11 14 14 13 11 13
1 0 2 4 1 3 4 5 2 2 1 1 1 2 2 5 2 4 5 2 1 2 2 2 1 1 1 2 0 0 0 2 2 1 1 1 1 1 3 1 1 3 2 7 3 2 1 3 2 0 2 2 5 8 7 7 4 6 8 5 3 5 3 4 3 5 3 2 1 1 2 1 2 3 7 7 7 9 10 11 15 12 11 10 9 8 9 10
2 2 3 2 2 3 5 1 1 3 2 2 1 2 1 4 5 6 5 5 3 4 1 2 2 1 2 1 1 1 0 1 1 1 1 1 2 3 2 3 4 3 0 2 1 1 1 2 2 4 3 3 5 2 4 7 7 5 5 5 3 2 2 7 5 8 5 4 3 3 3 2 1 2 7 9 7 9 12 14 13 13 11 9 9 9 10 10
2 2 1 2 3 5 3 0 2 2 2 1 2 3 0 3 6 3 3 6 4 2 2 2 2 1 1 1 2 2 1 1 1 1 2 1 2 1 2 4 1 2 1 3 2 1 2 1 3 1 2 3 1 1 3 1 0 3 5 7 8 6 8 8 5 6 4 4 3 2 3 1 1 5 7 7 6 7 11 11 12 15 13 11 9 9 9 10
2 1 1 2 4 3 3 2 2 0 0 1 2 2 3 2 3 5 1 1 5 1 1 1 2 1 2 1 1 2 3 2 1 1 3 1 3 1 2 1 2 2 2 3 1 0 1 1 1 2 3 3 1 2 5 5 3 5 4 3 2 4 4 2 2 1 1 2 3 1 3 0 2 8 7 7 5 5 9 10 8 9 13 13 10 9 9 11
5 2 3 1 3 3 1 2 0 1 2 0 2 4 3 3 4 2 3 1 2 1 2 1 2 3 1 2 2 1 1 2 2 1 2 2 2 6 3 3 2 1 1 3 2 3 2 2 0 1 1 2 6 6 6 7 3 9 3 2 5 5 4 4 5 3 7 5 5 2 3 1 4 8 8 7 5 1 3 8 8 8 8 10 11 10 10 9
1 2 2 1 0 2 2 3 2 2 2 1 1 4 2 3 1 4 2 2 1 1 2 2 2 1 2 0 2 0 2 3 3 3 2 1 2 3 3 6 5 1 1 2 2 3 3 1 1 1 2 3 6 5 2 6 6 5 3 4 5 2 4 1 4 3 6 7 4 5 5 1 4 7 8 8 8 6 4 4 7 8 8 11 12 10 8 7
2 2 3 4 1 2 2 1 2 1 1 2 2 5 5 2 4 6 4 4 1 1 2 3 1 2 2 1 3 1 2 2 1 1 1 3 3 1 2 6 4 1 2 1 1 1 1 1 1 3 3 3 3 0 2 5 7 9 3 7 4 3 4 2 4 5 5 1 2 2 4 3 3 7 9 9 8 7 6 3 3 5 9 11 12 9 8 7
3 1 2 1 3 1 2 1 1 0 1 0 1 1 1 4 1 2 4 4 2 1 1 0 1 1 3 1 2 3 4 2 1 1 1 1 2 1 3 5 3 0 3 6 4 1 2 1 2 2 2 4 4 5 3 3 5 4 9 8 9 3 3 8 2 5 7 3 5 2 2 3 5 8 10 9 8 7 6 4 2 3 4 7 9 8 7 6
1 1 2 2 3 2 2 2 2 1 1 2 1 1 2 1 4 5 4 2 1 2 1 2 1 2 2 2 2 1 2 1 3 0 2 3 1 1 4 2 4 4 6 1 3 2 3 4 6 12 13 11 10 8 7 10 8 8 10 11 10 5 6 10 9 6 1 1 7 4 2 3 4 6 7 8 7 5 5 5 2 2 3 5 7 8 9 7
1 1 1 1 1 1 1 1 4 3 1 1 2 1 2 1 2 3 2 1 1 1 3 1 1 2 3 2 4 3 0 1 1 0 3 2 3 1 1 4 0 4 5 1 3 0 2 3 5 7 12 10 8 7 8 8 6 6 8 11 12 10 4 9 4 2 4 6 4 6 5 5 3 5 6 7 7 5 5 5 5 4 5 6 8 9 9 8
0 1 0 2 2 1 2 3 4 3 3 3 1 3 2 0 2 1 1 3 1 1 1 2 2 0 1 4 2 2 2 2 1 1 3 1 1 2 1 2 2 3 2 1 2 1 2 4 2 5 11 7 7 7 7 7 4 7 7 12 13 12 6 2 4 3 5 2 7 9 9 7 4 4 5 6 6 6 5 4 5 6 6 6 7 8 7 5
2 2 1 3 2 4 3 2 1 1 2 1 3 4 2 2 3 3 1 3 2 2 0 3 4 1 1 3 4 5 7 4 3 2 3 2 1 1 1 2 2 1 1 1 2 2 2 4 10 5 5 5 4 5 6 5 2 3 3 8 11 14 10 1 7 8 8 8 9 11 10 7 4 4 6 6 7 7 8 9 8 6 5 8 4 6 6 6
1 1 0 2 2 1 1 1 1 1 2 1 3 1 1 3 2 1 5 4 5 4 5 8 7 4 1 0 2 5 5 6 5 3 4 5 2 0 2 1 3 2 1 1 2 2 2 3 2 2 2 3 5 5 2 2 5 1 4 10 11 12 8 3 3 3 5 8 10 10 8 5 4 5 7 8 9 10 10 10 9 8 8 8 8 7 6 6
1 1 2 1 2 2 2 0 1 1 4 2 2 1 2 1 1 2 4 2 4 4 5 8 6 5 1 3 4 5 7 6 5 1 1 0 2 1 1 1 3 2 2 2 1 0 1 4 4 2 3 3 6 4 3 7 5 2 5 3 7 11 13 1 5 9 7 5 9 6 5 5 6 6 8 8 11 12 11 10 9 10 10 10 10 8 7 7
Wind_Direction
353 352 349 347 346 343 341 339 338 336 334 334 332 331 331 330 329 327 327 325 326 325 326 327 329 330 329 331 333 331 343 326 311 302 269 243 194 160 182 176 175 196 209 129 125 129 117 132 138 156 138 164 111 182 140 203 340 266 23 346 334 343 267 191 220 193 77 145 155 179 212 136 128 131 122 121 95 103 107 92 87 82 88 105 118 127 133 137
352 350 348 346 344 342 339 337 336 334 335 334 332 331 329 328 327 327 325 325 324 324 325 327 328 328 329 332 332 345 342 307 288 279 242 223 179 183 182 319 141 172 158 144 152 140 132 151 153 156 139 144 161 101 179 118 217 260 141 267 330 288 18 316 335 304 168 153 153 158 197 154 132 135 155 134 131 130 113 102 105 99 103 116 125 134 141 146
350 350 346 344 342 340 338 334 335 335 333 333 331 331 329 327 326 325 324 323 321 321 322 327 327 328 328 329 331 2 333 309 256 275 340 238 215 181 177 173 137 157 170 149 159 150 152 156 155 149 132 127 166 116 214 110 225 200 263 295 291 279 292 265 257 245 348 143 141 147 154 133 131 143 153 146 145 153 144 135 133 130 133 140 140 144 146 150
349 346 345 342 340 339 336 334 334 334 333 332 332 331 330 327 325 324 324 323 321 321 324 323 325 326 326 323 334 335 323 274 77 48 317 325 178 166 169 162 154 149 112 99 131 118 97 131 157 161 119 168 123 147 188 162 243 130 229 264 323 350 305 316 209 58 18 183 139 136 126 123 136 122 156 135 137 173 169 162 158 155 147 150 151 151 151 154
345 345 342 341 339 337 336 333 333 332 332 331 331 330 330 326 324 324 323 322 322 323 324 324 324 323 327 324 342 330 313 256 104 256 338 351 148 150 158 160 155 141 124 123 106 107 143 147 155 140 159 164 143 170 230 175 231 177 271 316 291 3 284 32 347 64 46 107 121 131 142 132 113 136 152 156 163 184 183 162 151 148 151 154 156 154 154 156
344 343 342 337 338 336 333 333 332 331 331 330 328 328 327 326 323 322 322 321 321 321 323 325 323 325 326 345 320 286 284 119 12 342 345 116 135 142 148 136 138 118 119 118 112 135 136 153 163 159 164 181 192 222 99 219 175 257 193 257 252 314 321 78 232 122 62 125 129 135 95 122 159 138 157 160 62 100 140 145 141 146 149 150 150 153 156 159
345 342 339 339 336 335 334 331 332 330 329 330 326 326 326 325 323 320 321 321 319 320 321 323 324 321 346 346 15 290 44 273 298 332 75 119 132 134 127 121 130 126 118 117 126 139 164 156 196 156 141 168 188 238 226 214 199 248 284 6 21 319 340 4 290 107 94 93 71 60 145 131 148 141 158 127 88 134 137 138 135 139 144 150 153 162 157 159
343 341 339 337 336 334 332 333 331 328 329 327 326 323 324 323 322 319 318 318 317 317 318 322 324 320 345 344 264 313 39 2 344 17 111 124 125 128 103 91 116 132 143 143 148 131 154 168 178 134 188 198 86 214 112 219 202 234 251 257 35 316 99 177 123 141 115 97 106 125 122 94 145 121 158 148 125 140 137 137 136 141 148 154 156 159 160 161
344 341 341 337 335 335 333 332 332 330 328 327 324 324 322 321 318 318 315 315 314 311 315 317 322 324 338 287 77 299 80 293 332 18 133 122 113 115 132 118 247 136 107 114 154 145 166 178 137 186 218 209 153 291 220 256 228 218 233 108 66 13 57 127 131 153 127 109 125 127 100 101 85 112 163 154 138 140 134 138 142 145 155 160 162 161 163 165
345 344 341 339 338 336 334 333 333 332 329 325 326 324 322 319 316 317 317 313 309 307 309 312 314 330 334 321 270 161 108 84 56 104 128 128 128 113 72 125 135 123 128 80 134 153 197 155 186 155 31 138 41 301 294 224 0 151 125 143 145 355 330 145 148 149 111 118 168 151 129 124 99 205 156 160 146 140 139 141 147 152 160 164 164 164 165 168
347 344 341 340 339 337 335 335 335 332 330 327 324 323 321 317 316 313 314 313 307 306 305 305 323 325 290 308 25 75 60 99 60 131 138 138 134 143 141 145 142 103 109 107 150 203 143 183 177 135 287 24 273 342 199 39 100 121 131 122 44 5 40 132 140 146 146 108 340 156 108 104 98 247 167 155 153 149 144 147 153 156 160 165 166 165 167 170
345 343 341 339 338 337 335 335 334 332 330 327 324 320 319 317 313 314 306 308 303 300 314 315 345 12 275 340 221 238 26 95 139 126 142 150 111 63 115 148 164 142 151 160 173 224 236 86 222 235 221 304 291 255 87 114 107 132 164 182 20 5 43 151 167 161 227 128 225 142 115 168 181 193 119 152 157 152 148 152 156 160 157 165 168 166 172 175
344 343 341 338 337 336 335 334 333 332 330 326 322 319 316 314 312 303 301 296 286 272 240 209 153 267 293 278 216 223 130 153 110 120 137 104 98 69 118 129 82 89 152 151 179 219 201 257 3 206 55 334 10 341 86 138 118 128 56 153 173 185 235 152 356 151 188 113 243 256 181 202 194 163 136 157 157 152 149 156 161 161 159 163 171 171 173 175
344 342 340 338 335 334 334 333 333 331 328 324 322 319 315 311 305 294 285 268 260 255 225 165 180 261 248 250 269 195 194 209 129 166 170 149 122 84 91 89 97 99 36 108 84 342 180 201 344 1 253 323 26 130 150 101 172 173 102 204 231 215 204 154 272 162 186 118 241 312 211 178 179 175 149 164 160 159 160 161 163 163 161 165 175 176 177 182
342 342 339 337 334 332 333 333 332 330 328 326 324 319 314 308 298 284 264 240 236 218 188 117 27 262 249 276 280 286 159 149 195 205 164 158 135 118 106 129 103 75 61 36 62 47 140 146 204 274 192 87 157 197 163 171 99 120 202 176 175 261 142 225 308 209 184 161 210 273 245 182 175 166 157 168 169 166 161 165 164 164 165 166 177 182 181 188
342 341 340 336 332 332 332 332 330 328 328 328 324 320 316 307 282 222 197 191 186 162 145 207 161 310 279 29 86 97 152 266 49 73 168 159 157 102 135 111 108 83 135 60 355 302 336 160 179 148 224 147 191 220 185 210 163 99 261 227 256 229 244 223 186 292 294 151 182 255 183 123 171 149 164 173 170 173 163 166 166 165 168 168 178 185 187 184
343 341 339 335 332 330 331 330 328 329 330 328 325 324 318 244 115 138 136 137 119 62 208 46 158 235 44 89 253 288 308 263 91 96 117 189 119 131 119 116 104 94 47 73 102 152 126 177 82 166 49 264 187 208 222 241 269 230 207 254 302 259 193 231 54 216 254 165 182 238 129 142 17 154 171 176 174 172 170 169 168 166 170 172 177 189 185 189
341 340 338 334 331 329 328 327 326 329 330 330 324 318 335 88 132 123 112 113 117 163 358 244 146 296 242 252 323 358 322 288 154 101 83 56 128 144 130 116 89 98 120 99 75 167 179 155 245 183 201 195 182 201 220 247 267 219 201 221 231 240 231 296 182 162 189 193 186 174 64 343 37 161 175 178 176 176 176 173 171 169 171 175 181 191 191 193
340 339 334 331 329 328 326 325 327 326 331 330 318 301 38 69 98 163 142 159 187 162 265 133 215 339 113 166 349 272 237 175 110 162 125 136 185 118 82 79 120 136 119 203 127 168 178 121 156 181 213 190 198 205 220 39 351 26 209 93 17 259 193 233 187 128 182 148 163 180 205 163 164 171 175 179 179 179 173 169 168 171 172 179 185 190 195 198
336 333 331 325 323 326 325 324 323 320 332 341 351 102 183 224 196 163 156 234 225 276 287 271 155 267 294 273 271 297 253 121 166 27 119 170 134 137 76 120 95 65 153 182 150 220 201 179 194 208 204 204 218 220 228 38 45 65 130 290 353 262 108 77 343 174 168 120 151 182 197 165 173 183 179 179 177 178 169 169 172 174 175 183 190 190 198 203
329 329 327 324 323 322 323 322 317 318 328 295 268 238 21 340 356 352 336 274 206 249 255 229 199 254 273 350 277 327 28 29 31 119 169 165 144 156 59 211 128 155 52 17 147 71 232 208 215 105 231 232 255 231 232 247 271 315 313 337 16 305 69 53 290 168 170 207 156 41 149 166 165 173 178 175 181 187 181 177 178 179 180 184 189 193 198 204
332 329 327 327 323 323 320 320 319 325 346 203 241 57 161 285 318 333 356 312 303 228 237 272 328 271 285 250 251 145 130 359 81 80 99 195 124 263 125 218 175 161 78 156 128 167 187 217 42 303 225 221 208 215 222 242 265 286 304 8 339 319 58 92 40 347 309 286 141 114 147 137 135 169 170 184 191 193 190 186 183 182 184 184 190 198 197 194
334 331 328 328 327 322 323 318 327 344 171 215 48 116 122 67 23 258 207 231 275 192 205 225 226 245 281 255 265 182 143 195 232 161 178 179 129 250 149 184 140 97 130 176 190 165 201 221 177 212 170 177 155 174 204 236 243 260 265 288 308 132 256 282 130 175 318 290 205 143 108 37 47 160 191 186 192 188 186 193 190 190 186 187 190 196 197 199
334 333 329 328 328 325 320 324 319 259 243 278 207 193 84 28 350 133 178 276 323 309 211 213 242 239 246 327 163 168 192 152 162 187 111 184 154 141 159 149 114 177 178 171 188 203 179 114 110 142 166 209 267 145 193 229 255 189 263 280 282 198 220 298 115 44 329 26 83 95 62 337 223 179 195 195 175 166 189 194 201 197 203 196 193 201 203 200
333 333 331 329 329 323 323 316 251 237 140 210 243 253 280 302 256 220 208 273 196 258 32 270 209 240 166 103 107 240 98 102 233 12 166 160 115 146 36 158 201 190 113 123 121 142 238 259 138 149 155 176 189 241 212 239 264 169 175 260 270 251 178 114 117 140 200 316 242 158 152 246 188 211 199 183 187 201 184 198 202 198 199 188 194 202 204 206
333 330 332 331 326 325 308 258 153 64 294 261 119 145 291 304 261 207 192 35 74 319 294 167 237 82 209 114 137 138 285 282 30 248 185 201 113 163 143 148 327 194 157 167 235 272 258 93 182 182 198 191 224 264 207 211 265 284 113 230 255 209 144 146 160 170 183 241 190 203 203 219 150 208 212 197 203 205 187 205 207 200 196 196 200 200 202 204
331 332 330 331 329 326 299 190 48 261 267 135 229 322 301 284 187 164 258 305 108 91 319 344 262 84 216 116 165 162 200 80 61 102 192 193 188 343 222 139 177 54 127 143 153 209 184 163 175 170 192 211 231 247 179 207 253 270 89 200 215 151 148 156 154 181 62 115 176 198 213 251 241 229 209 204 204 209 209 208 206 200 198 201 204 201 200 201
331 329 328 325 330 319 299 344 307 214 309 88 16 311 296 268 135 304 272 75 26 246 312 295 337 218 309 16 227 249 358 321 299 105 284 335 232 97 322 196 214 180 157 195 226 95 200 156 192 186 195 204 247 244 167 202 245 26 94 125 126 144 138 149 166 172 114 336 225 204 193 238 239 229 188 192 209 213 216 212 207 202 201 202 202 204 200 200
329 327 325 326 316 28 270 235 326 256 43 327 328 316 321 129 186 104 259 75 64 299 114 314 120 177 343 104 156 10 319 214 327 15 0 104 35 263 214 198 186 151 89 250 249 120 247 224 200 221 205 245 228 226 162 163 132 130 114 107 114 122 141 156 157 154 142 210 240 196 178 228 253 170 180 194 211 211 212 213 209 206 200 201 203 203 202 196
325 321 322 315 302 196 196 157 231 256 308 313 330 316 229 181 225 218 46 212 2 15 148 297 305 304 275 192 283 23 212 19 0 40 43 177 56 100 37 56 158 176 190 100 271 241 335 37 95 191 206 231 186 63 184 179 116 137 129 115 114 110 121 127 133 165 161 241 252 200 187 202 274 191 191 181 210 204 209 208 210 207 204 203 202 200 196 192
319 312 309 284 239 197 155 269 234 225 277 309 301 240 212 46 53 86 78 4 268 276 297 302 342 346 179 236 244 71 184 297 90 151 157 232 140 63 96 191 86 110 99 202 248 254 271 158 200 216 222 94 121 87 60 148 141 150 150 134 120 102 152 163 124 195 256 255 58 222 189 198 230 228 201 210 162 196 192 199 201 205 206 201 199 200 196 193
314 307 289 233 232 276 205 123 130 322 307 303 290 113 158 241 139 15 26 54 297 34 346 343 337 3 123 44 195 359 13 47 22 166 214 196 189 205 187 237 166 231 220 202 226 72 249 217 169 292 173 166 128 107 96 146 159 192 155 154 212 230 221 223 150 226 215 255 71 132 145 192 237 247 314 194 196 199 201 196 190 197 202 197 194 195 189 190
315 309 272 225 208 221 250 306 336 321 291 265 55 87 180 98 83 278 268 336 306 333 19 194 298 295 293 165 232 310 269 353 331 102 356 79 254 225 18 249 176 262 302 102 292 299 275 75 147 154 125 192 173 163 142 168 190 189 186 160 198 222 228 270 222 295 283 238 195 214 172 240 284 270 213 207 210 203 197 202 198 195 196 193 188 189 185 183
317 317 198 198 203 227 294 333 32 337 284 82 216 108 85 76 113 100 290 230 297 66 277 301 330 150 174 230 52 216 205 103 353 42 355 2 304 257 168 171 179 169 212 140 282 10 308 173 157 170 201 174 202 197 175 179 177 195 183 174 222 215 195 248 190 243 323 25 142 156 173 233 203 148 346 233 214 206 200 199 202 198 194 189 184 182 177 180
322 25 152 133 231 243 237 244 307 344 8 61 54 112 172 201 259 262 246 302 277 258 200 114 235 192 163 237 314 233 296 149 31 271 50 4 208 272 245 171 199 257 140 217 115 247 346 286 19 239 342 165 197 194 174 140 158 172 145 112 214 229 124 273 12 279 307 253 190 174 230 301 235 109 195 165 219 199 185 192 203 209 197 182 176 177 180 185
302 102 203 238 226 313 180 189 182 315 41 74 191 28 65 180 40 179 299 244 262 315 317 323 102 207 33 277 15 148 31 296 25 280 84 288 317 248 5 269 198 196 187 224 133 198 216 129 357 316 151 198 192 155 170 169 207 155 171 207 196 75 192 99 135 75 268 240 245 161 264 239 264 234 192 174 162 185 178 186 197 202 185 178 182 182 183 184
30 252 189 248 263 101 138 151 156 171 110 78 209 262 198 248 229 175 224 282 320 311 299 328 28 318 267 303 272 57 75 58 92 287 212 314 243 230 275 239 199 173 233 301 209 232 317 10 21 351 79 316 257 169 156 274 131 131 207 173 81 58 30 258 255 183 238 272 250 184 246 287 346 271 48 164 173 167 180 182 191 178 174 185 189 185 183 185
351 350 255 28 29 101 132 157 149 126 83 78 202 269 97 302 138 231 17 263 238 111 183 215 50 269 247 273 189 122 56 246 63 194 83 32 331 83 263 279 210 224 168 170 275 114 232 250 127 15 337 64 163 154 138 124 287 233 42 138 199 173 204 29 286 234 223 234 272 214 254 269 240 262 59 195 206 187 184 180 181 180 180 189 189 183 182 184
231 326 60 11 61 126 152 174 235 88 43 61 25 357 176 256 224 215 220 179 129 149 225 234 267 133 191 185 187 275 333 223 104 66 223 59 230 136 304 348 222 239 280 165 202 113 224 301 159 34 85 117 171 178 180 162 115 75 121 115 49 113 115 66 254 294 291 296 258 186 210 341 73 331 324 299 241 204 184 183 192 184 183 182 173 164 165 172
26 80 51 42 129 126 143 237 102 56 76 10 171 247 72 278 252 232 222 217 232 173 245 259 170 294 243 6 254 61 178 91 164 118 310 130 290 160 258 188 271 302 343 239 25 105 235 332 285 50 6 194 171 209 224 191 169 137 159 167 178 94 109 132 248 265 274 292 296 314 294 96 89 339 308 293 278 216 193 190 189 188 192 183 172 169 176 176
274 95 89 87 125 154 220 255 65 81 104 153 215 264 246 274 320 260 213 217 236 241 229 209 177 231 219 122 199 201 122 98 122 163 192 153 253 92 228 271 221 298 125 147 162 135 192 202 310 62 175 202 247 211 323 326 22 158 176 186 180 168 164 202 209 242 246 260 265 295 305 92 32 353 322 309 292 239 209 200 191 188 188 187 182 166 168 179
326 99 81 50 152 189 286 166 63 286 160 218 335 166 296 300 269 280 341 89 226 217 39 96 259 257 140 226 23 216 143 125 115 241 208 180 179 208 329 170 252 277 242 154 81 87 305 125 277 286 20 5 351 327 307 300 107 125 264 203 179 120 131 173 238 169 301 254 299 312 294 216 28 354 344 335 313 255 210 199 196 189 188 184 189 175 174 183
27 317 355 276 200 300 13 69 32 196 214 262 344 242 226 255 250 314 346 294 267 142 114 191 232 188 201 273 162 239 247 119 194 220 151 243 260 218 262 310 163 157 244 116 233 182 190 12 179 51 139 166 106 97 80 21 175 167 115 119 171 187 189 190 226 331 312 316 277 301 252 49 39 7 2 3 2 336 184 193 186 178 182 178 178 182 182 187
258 288 325 128 153 326 234 225 167 178 268 291 201 282 193 276 316 306 263 288 254 137 176 184 189 250 73 235 104 230 253 191 210 227 201 140 259 118 282 315 209 111 256 107 267 132 250 121 275 41 158 135 113 156 82 18 11 43 349 14 342 51 105 84 299 20 284 273 266 262 275 210 35 9 16 27 40 54 97 155 191 183 181 187 186 176 175 179
275 237 261 296 1 266 260 135 175 194 199 305 331 320 335 277 210 235 267 291 206 167 149 204 266 166 105 52 91 158 43 296 119 202 323 201 268 82 31 284 274 125 176 175 248 353 12 64 240 232 197 178 139 204 1 341 332 316 318 344 355 291 143 209 251 228 247 220 134 230 269 65 20 21 26 30 39 52 50 87 153 196 186 188 186 171 161 166
357 82 331 107 16 61 89 330 12 158 135 231 297 290 216 295 305 240 188 235 179 95 299 213 86 157 77 178 64 35 47 32 275 103 198 233 246 55 259 298 348 299 122 81 55 55 84 349 340 86 93 102 79 83 52 316 285 318 343 339 337 300 227 241 295 233 236 211 224 221 327 120 30 17 20 23 29 37 44 60 108 155 166 179 172 152 152 152
213 358 350 348 333 68 62 20 48 329 143 148 241 205 260 226 297 311 164 244 121 245 65 16 30 191 221 131 134 94 343 334 20 194 14 305 246 267 282 332 328 360 334 132 64 120 102 84 59 84 91 106 115 99 65 46 31 3 3 354 338 314 214 205 209 229 54 247 249 117 184 139 58 25 18 24 26 36 42 47 78 139 130 154 154 135 129 132
315 58 274 94 306 42 224 166 21 332 228 219 267 182 257 295 14 321 305 189 70 286 222 189 112 33 203 209 149 129 98 46 2 119 312 207 302 345 178 48 308 329 320 28 350 149 149 115 135 97 110 125 112 92 84 56 8 334 3 4 350 330 240 208 225 157 197 234 278 132 139 117 60 22 17 26 22 25 32 41 63 88 114 114 121 127 130 131
305 9 50 345 247 208 261 340 321 293 289 231 277 216 261 218 292 208 288 327 347 261 328 187 242 298 181 137 170 137 180 147 135 266 206 258 261 336 149 342 164 53 351 331 60 69 119 50 115 133 124 127 115 102 84 78 355 322 0 352 350 331 305 212 125 151 202 178 124 132 116 86 65 37 27 27 32 42 49 60 69 82 95 79 80 116 116 104
27 346 39 346 268 282 271 293 294 301 286 168 240 201 233 197 239 339 239 218 273 258 261 210 168 192 170 162 147 155 207 194 162 151 193 216 166 195 213 249 279 144 339 333 308 85 294 124 148 163 106 119 103 88 72 79 267 307 339 358 349 338 286 276 110 114 126 123 129 129 116 92 60 53 61 52 54 61 60 58 60 64 74 110 111 56 48 62
5 358 31 342 302 250 235 261 263 298 267 158 225 175 223 216 201 135 278 224 241 218 199 185 160 120 67 72 216 141 170 177 170 109 171 179 1 179 220 214 228 231 43 219 348 51 10 138 206 195 129 128 156 123 96 241 240 159 32 11 346 341 287 237 122 123 171 154 147 131 110 92 91 82 76 70 64 54 50 50 53 56 68 70 77 72 62 41
279 201 271 290 252 19 303 31 269 180 236 213 222 230 256 339 117 314 301 247 228 265 262 150 172 133 37 124 142 187 194 194 198 250 210 93 355 101 241 240 217 270 185 195 331 129 74 142 171 184 132 164 115 142 213 229 207 124 26 15 351 314 312 290 70 56 38 166 151 133 111 97 88 83 77 69 64 52 40 44 51 58 59 66 66 70 69 65